Regional Weather Roundup
Issued by NWS

Home | Current Version | Previous Version | Text Only | Print | Product List | Glossary On
Versions: 1 2 3 4 5 6 7 8 9 10 11 12 13 14 15 16 17 18 19 20 21 22 23 24 25 26 27 28 29 30 31 32 33 34 35 36 37 38 39 40 41 42 43 44 45 46 47 48 49 50
000
ASUS43 KDTX 311110
RWRMI
MICHIGAN HOURLY REGIONAL WEATHER ROUNDUP
NATIONAL WEATHER SERVICE DETROIT/PONTIAC MI
700 AM EDT FRI OCT 31 2014

NOTE: "FAIR" INDICATES FEW OR NO CLOUDS BELOW 12,000 FEET WITH NO
SIGNIFICANT WEATHER AND/OR OBSTRUCTION TO VISIBILITY.

MIZ047>049-052>055-059>063-066>070-074>076-081>083-311200-
SOUTHEAST LOWER MICHIGAN

CITY           SKY/WX    TMP DP  RH WIND       PRES   REMARKS
ADRIAN         CLOUDY    42  38  85 SW6       29.91F
ALMA           LGT RAIN  41  40  95 W5        29.91S
ANN ARBOR      CLOUDY    43  36  76 SW7       29.90F
BAD AXE        LGT RAIN  41  41 100 CALM      29.89F
CARO           LGT RAIN  42  41  95 CALM      29.88F
DETROIT CITY   CLOUDY    46  37  71 SW7       29.91F
DETROIT        LGT RAIN  44  38  79 S7        29.91F
FLINT          LGT RAIN  44  39  82 SW5       29.90S
GROSSE ILE     MIX PCPN  45  37  76 SW6       29.91S
HILLSDALE      LGT RAIN  43  41  93 SW5       29.90F
HOWELL         LGT RAIN  42  38  87 SW6       29.89S

CITY           SKY/WX    TMP DP  RH WIND       PRES   REMARKS
JACKSON        LGT RAIN  42  40  92 W7        29.90S
LAMBERTVILLE   CLOUDY    45  36  70 S6        29.92F
LANSING        LGT RAIN  41  38  89 NW7       29.91S
LAPEER         LGT RAIN  42  38  83 SW6       29.89F
MASON          RAIN      42  40  93 W6        29.90S
MONROE         DRIZZLE   45  37  76 SW6       29.90F
MT. CLEMENS    CLOUDY    44  39  82 SW5       29.88F
PONTIAC        LGT RAIN  43  36  76 CALM      29.88F
PORT HOPE        N/A     42  39  89 SW3       29.87F
PORT HURON     CLOUDY    41  39  93 CALM      29.90F
TRI CITIES     LGT RAIN  42  39  89 W5        29.90F
TROY           CLOUDY    45  36  69 SW3       29.91F
SAGINAW HB     LGT RAIN  43  43 100 NW8       29.89S
$$
MIZ043>046-050>051-056>058-064>065-071>073-077>080-311200-
SOUTHWEST LOWER MICHIGAN

CITY           SKY/WX    TMP DP  RH WIND       PRES   REMARKS
BATTLE CREEK   LGT RAIN  41  37  86 NW9       29.92S
BENTON HARBOR  RAIN      41  36  82 N9G17     29.97S
BIG RAPIDS     CLOUDY    39  39 100 NW3       29.90S
COLDWATER      RAIN      44  42  93 W7        29.91F
FREMONT        RAIN      38  37  95 NW10      29.93S WCI  31
HOLLAND        LGT RAIN  42  38  85 VRB3      29.95F
GRAND RAPIDS   LGT RAIN  41  40  96 NW10      29.93S
IONIA          LGT RAIN  41  38  90 NW6       29.91S
KALAMAZOO      LGT RAIN  42  38  85 NW14      29.94S
LUDINGTON      CLOUDY    39  37  91 N26G32    29.94S WCI  28
MARSHALL       LGT RAIN  41  39  94 NW12      29.91S
MOUNT PLEASANT RAIN      41  39  93 CALM      29.89S
MUSKEGON       LGT RAIN  40  35  83 NW16G29   29.96R WCI  31
SOUTH HAVEN    LGT RAIN  43  38  82 N14G22    29.95F
$$
MIZ016>042-311200-
NORTHERN LOWER MICHIGAN

CITY           SKY/WX    TMP DP  RH WIND       PRES   REMARKS
ALPENA         CLOUDY    39  37  92 NW9       29.90R WCI  33
BEAVER ISLAND  LGT SNOW  35  33  94 N22G30    30.05R WCI  23
BELLAIRE       FLURRIES  37  33  88 N13G25    29.96R WCI  28
CADILLAC       CLOUDY    37  35  94 NW9       29.87S WCI  30
CHARLEVOIX     FLURRIES  35  33  90 NE26G37   30.02R WCI  23
FRANKFORT      MIX PCPN  38  36  92 N21G32    29.96R WCI  27
GAYLORD        LGT SNOW  33  32  96 NE9G17    29.92R FOG     WCI  25
GRAYLING       LGT RAIN  38  38 100 N6        29.90R WCI  33
HARBOR SPRINGS LGT SNOW  33  32  94 N15G28    29.99R WCI  23
HOUGHTON LAKE  CLOUDY    38  37  97 N5        29.89R WCI  34
MANISTEE       MOCLDY    39  34  81 N12G18    29.93S WCI  32
OSCODA         LGT RAIN  40  40  99 NW3       29.89R
PELLSTON       LGT SNOW  33  31  92 N21G28    30.02R FOG     WCI  21
ROGERS CITY    CLOUDY    37  36  93 N18G31    29.95R WCI  27
TRAVERSE CITY  LGT RAIN  40  34  79 NE18G38   29.93R WCI  31
$$
MIZ007>008-015-311200-
EASTERN UPPER MICHIGAN

CITY           SKY/WX    TMP DP  RH WIND       PRES   REMARKS
KINROSS        CLOUDY    30  30 100 N15G25    30.06R WCI  19
MACKINAC ISLAN LGT SNOW  33  32  97 N20G31    30.02R WCI  21
NEWBERRY       CLOUDY    32  27  83 N16G23    30.11R WCI  21
S. S. MARIE    CLOUDY    32  25  75 NE12G23   30.06R WCI  23
MUNISING         N/A     37  28  70 N31G41    30.19R WCI  24
$$
MIZ004>006-011>014-085-311200-
CENTRAL UPPER MICHIGAN

CITY           SKY/WX    TMP DP  RH WIND       PRES   REMARKS
MANISTIQUE     CLOUDY    33  27  80 N23G37    30.11R WCI  20
ESCANABA       CLOUDY    34  27  75 N12G26    30.14R WCI  25
MENOMINEE      CLOUDY    34  25  69 N20G33    30.15R WCI  22
SAWYER-GWINN   LGT SNOW  30  25  80 N31G39    30.20R WCI  15
$$
MIZ001>003-009>011-084-311200-
WESTERN UPPER MICHIGAN

CITY           SKY/WX    TMP DP  RH WIND       PRES   REMARKS
IRON MOUNTAIN  MOCLDY    30  23  75 N20G28    30.21R WCI  17
HOUGHTON       FLURRIES  29  22  75 N16G25    30.33R WCI  17
COPPER HARBOR    N/A     35  27  72 NE37G44   30.33R WCI  21
IRONWOOD       CLOUDY    28  25  86 N13G24    30.36R WCI  18
$$

ABBREVIATIONS USED IN REMARKS
   TC - TEMPERATURE IN CELSIUS
  WCI - WIND CHILL INDEX
   HX - HEAT INDEX
  VSB - VISIBILITY




USA.gov is the U.S. government's official web portal to all federal, state and local government web resources and services.